Flag for Greenland Weather past 2 weeks in Thule Air Base, Greenland

Now
-29 °F

Clear.


Feels Like: -48 °F
Forecast: -28 / -22 °F
Wind: 7 mph from East

Location: Thule A. B.

Current Time: Mar 5, 2015 at 2:41:20 AM

Latest Report: Mar 5, 2015 at 1:58 AM


Visibility: N/A

Pressure: 29.02 "Hg

Humidity: 100%

Dew point: -29 °F

Location of Thule Air BaseLocation

Historic Weather in Thule Air Base — Graph

°F

Thule Air Base temperature yesterday

Maximum temperature yesterday: -24 °F (at 12:58 AM)
Minimum temperature yesterday: -29 °F (at 3:58 AM)
Average temperature yesterday: -27 °F

Past Weeks' High & Low Weather Summary

 TemperatureHumidityPressure
High-11 °F (Feb 26, 9:58 AM)100% (Feb 18, 2:58 AM)30.36 "Hg (Feb 18, 2:58 AM)
Low-33 °F (Feb 18, 12:58 AM)56% (Feb 18, 7:58 AM)29.04 "Hg (Mar 5, 12:58 AM)
Average-26 °F86%29.68 "Hg
* Reported Feb 18 12:58 AM — Mar 5 12:58 AM, Thule Air Base, Weather by CustomWeather, © 2015

Note: Actual official high and low records may vary slightly from our data, if they occured in-between our weather recording intervals... More about our weather records

Advertising

Thule Air Base weather history for previous 24 hours

 ConditionsComfort  
Time TempWeatherWind HumidityBarometerVisibility
12:58 AM
Thu, Mar 5
-29 °FClear.6 mph100%29.04 "HgN/A
11:58 PM
Wed, Mar 4
-27 °FClear.9 mph91%29.05 "HgN/A
9:58 PM-29 °FClear.12 mph100%29.10 "HgN/A
8:58 PM-29 °FClear.8 mph100%29.12 "HgN/A
7:58 PM-29 °FClear.5 mph100%29.13 "HgN/A
6:58 PM-27 °FClear.6 mph91%29.15 "HgN/A
5:58 PM-29 °FSunny.10 mph100%29.17 "HgN/A
4:58 PM-27 °FSunny.7 mph91%29.20 "HgN/A
3:58 PM-27 °FSunny.6 mph91%29.22 "HgN/A
2:58 PM-27 °FSunny.3 mph91%29.23 "HgN/A
1:58 PM-26 °FSunny.6 mph82%29.26 "HgN/A
12:58 PM-27 °FSunny.3 mph91%29.28 "HgN/A
11:58 AM-26 °FSunny.6 mph82%29.31 "HgN/A
10:58 AM-27 °FSunny.6 mph91%29.34 "HgN/A
9:58 AM-27 °FSunny.No wind91%29.36 "HgN/A
8:58 AM-27 °FClear.8 mph91%29.40 "HgN/A
7:58 AM-29 °FClear.10 mph100%29.42 "HgN/A
6:58 AM-26 °FClear.8 mph82%29.44 "HgN/A
5:58 AM-27 °FClear.9 mph91%29.48 "HgN/A
4:58 AM-29 °FClear.5 mph100%29.51 "HgN/A
3:58 AM-29 °FClear.7 mph100%29.53 "HgN/A
2:58 AM-26 °FClear.6 mph82%29.56 "HgN/A
Weather by CustomWeather, © 2015

See weather overviewHow to use our weather pages